| time (UTC) | temp C | wind direction | speed KPH | gust KPH | rain 1hr cm | rain 24hr cm | rain mn cm | humidity % | barometer mb |
| 20260506103003 | -17 | 0.0 | 0.0 | 0.00 | 0.03 | 0.00 | 1007.2 | ||
| 20260506101604 | -17 | 0.0 | 0.0 | 0.00 | 0.03 | 0.00 | 1007.1 | ||
| 20260506100052 | -17 | 0.0 | 0.0 | 0.00 | 0.03 | 0.00 | 1006.9 | ||
| 20260506094606 | -17 | 0.0 | 0.0 | 0.00 | 0.03 | 0.00 | 1007.3 | ||
| 20260506093046 | -17 | 0.0 | 0.0 | 0.00 | 0.03 | 0.00 | 1007.2 | ||
| 20260506091536 | -17 | 0.0 | 0.0 | 0.00 | 0.03 | 0.00 | 1007.1 | ||
| 20260506090031 | -17 | 0.0 | 0.0 | 0.00 | 0.03 | 0.00 | 1007.2 | ||
| 20260506084526 | -17 | 0.0 | 0.0 | 0.00 | 0.03 | 0.00 | 1007.3 | ||
| 20260506083019 | -17 | 0.0 | 0.0 | 0.00 | 0.03 | 0.00 | 1007.6 | ||
| 20260506081515 | -17 | 0.0 | 0.0 | 0.00 | 0.03 | 0.00 | 1007.6 | ||
| 20260506073002 | -17 | 0.0 | 0.0 | 0.00 | 0.03 | 0.00 | 1007.7 | ||
| 20260506071555 | -17 | 0.0 | 0.0 | 0.00 | 0.03 | 0.00 | 1007.6 | ||
| 20260506061539 | 18 | 167 | 14.5 | 32.2 | 0.00 | 0.03 | 0.00 | 66 | 1008.2 |
| 20260506044515 | 18 | 242 | 6.4 | 27.4 | 0.00 | 0.03 | 0.00 | 63 | 1009.0 |
| 20260506043013 | 18 | 179 | 11.3 | 29.0 | 0.00 | 0.03 | 0.00 | 62 | 1008.8 |
| 20260506041508 | 19 | 172 | 8.0 | 24.1 | 0.00 | 0.03 | 0.00 | 61 | 1008.7 |
| 20260506040004 | 19 | 164 | 9.7 | 29.0 | 0.00 | 0.03 | 0.03 | 60 | 1008.6 |
| 20260506034501 | 20 | 90 | 9.7 | 22.5 | 0.00 | 0.03 | 0.03 | 59 | 1008.6 |
| 20260506033100 | 20 | 284 | 8.0 | 27.4 | 0.00 | 0.03 | 0.03 | 57 | 1008.5 |
| 20260506031605 | 20 | 250 | 9.7 | 22.5 | 0.00 | 0.03 | 0.03 | 54 | 1008.5 |
| 20260506030056 | 20 | 113 | 12.9 | 30.6 | 0.00 | 0.03 | 0.03 | 51 | 1008.5 |
| 20260506024554 | 21 | 170 | 8.0 | 29.0 | 0.00 | 0.03 | 0.03 | 50 | 1008.2 |
| 20260506023050 | 21 | 175 | 12.9 | 35.4 | 0.00 | 0.03 | 0.03 | 49 | 1008.4 |
| 20260506021556 | 21 | 194 | 16.1 | 33.8 | 0.00 | 0.03 | 0.03 | 48 | 1008.4 |
| 20260506020047 | 21 | 195 | 8.0 | 37.0 | 0.00 | 0.03 | 0.03 | 48 | 1008.3 |
| 20260506014545 | 21 | 118 | 11.3 | 25.7 | 0.00 | 0.03 | 0.03 | 47 | 1008.3 |
| 20260506013045 | 22 | 137 | 8.0 | 24.1 | 0.00 | 0.03 | 0.03 | 44 | 1008.1 |
| 20260506011541 | 22 | 128 | 12.9 | 35.4 | 0.00 | 0.03 | 0.03 | 42 | 1008.0 |
| 20260506010043 | 22 | 152 | 8.0 | 27.4 | 0.00 | 0.03 | 0.03 | 41 | 1007.8 |
| 20260506004538 | 22 | 127 | 9.7 | 22.5 | 0.00 | 0.03 | 0.03 | 40 | 1007.8 |
| 20260506003038 | 22 | 184 | 12.9 | 24.1 | 0.00 | 0.03 | 0.03 | 39 | 1007.8 |
| 20260506001534 | 22 | 219 | 14.5 | 29.0 | 0.00 | 0.03 | 0.03 | 39 | 1007.8 |
| 20260506000033 | 22 | 125 | 8.0 | 22.5 | 0.00 | 0.03 | 0.03 | 39 | 1007.6 |
| 20260505234531 | 22 | 281 | 9.7 | 20.9 | 0.00 | 0.03 | 0.03 | 38 | 1007.5 |
| 20260505233030 | 23 | 158 | 9.7 | 24.1 | 0.00 | 0.03 | 0.03 | 37 | 1007.3 |
| 20260505231530 | 23 | 194 | 11.3 | 30.6 | 0.00 | 0.03 | 0.03 | 37 | 1007.0 |
| 20260505230028 | 23 | 238 | 9.7 | 29.0 | 0.00 | 0.03 | 0.03 | 36 | 1007.0 |
| 20260505224520 | 24 | 273 | 8.0 | 24.1 | 0.00 | 0.03 | 0.03 | 35 | 1006.6 |
| 20260505223017 | 24 | 217 | 12.9 | 29.0 | 0.00 | 0.03 | 0.03 | 34 | 1006.5 |
| 20260505221516 | 25 | 248 | 9.7 | 33.8 | 0.00 | 0.03 | 0.03 | 33 | 1006.3 |
| 20260505220013 | 25 | 139 | 12.9 | 29.0 | 0.00 | 0.03 | 0.03 | 33 | 1006.0 |
| 20260505214513 | 25 | 143 | 11.3 | 25.7 | 0.00 | 0.03 | 0.03 | 36 | 1006.3 |
| 20260505213008 | 25 | 195 | 3.2 | 22.5 | 0.00 | 0.03 | 0.03 | 37 | 1006.2 |
| 20260505211612 | 25 | 283 | 12.9 | 35.4 | 0.00 | 0.03 | 0.03 | 35 | 1006.1 |
| 20260505210002 | 26 | 292 | 8.0 | 27.4 | 0.00 | 0.03 | 0.03 | 34 | 1005.9 |
| 20260505204602 | 26 | 302 | 8.0 | 24.1 | 0.00 | 0.03 | 0.03 | 34 | 1005.8 |
| 20260505203059 | 26 | 179 | 9.7 | 22.5 | 0.00 | 0.03 | 0.03 | 34 | 1005.9 |
| 20260505201558 | 26 | 178 | 6.4 | 19.3 | 0.00 | 0.03 | 0.03 | 35 | 1006.3 |
| 20260505200051 | 26 | 95 | 8.0 | 25.7 | 0.00 | 0.03 | 0.03 | 34 | 1006.3 |
| 20260505194606 | 26 | 100 | 6.4 | 22.5 | 0.00 | 0.03 | 0.03 | 35 | 1006.3 |
| 20260505193046 | 26 | 180 | 8.0 | 25.7 | 0.00 | 0.03 | 0.03 | 35 | 1006.6 |
| 20260505191543 | 26 | 114 | 8.0 | 22.5 | 0.00 | 0.03 | 0.03 | 33 | 1006.7 |
| 20260505190045 | 26 | 164 | 9.7 | 27.4 | 0.00 | 0.03 | 0.03 | 36 | 1007.1 |
| 20260505184538 | 26 | 239 | 9.7 | 29.0 | 0.00 | 0.03 | 0.03 | 36 | 1007.2 |
| 20260505183039 | 26 | 262 | 8.0 | 35.4 | 0.00 | 0.03 | 0.03 | 38 | 1007.5 |
| 20260505181532 | 26 | 91 | 8.0 | 22.5 | 0.00 | 0.03 | 0.03 | 38 | 1007.7 |
| 20260505180032 | 26 | 231 | 6.4 | 24.1 | 0.00 | 0.03 | 0.03 | 37 | 1007.7 |
| 20260505174527 | 25 | 183 | 12.9 | 27.4 | 0.00 | 0.03 | 0.03 | 37 | 1007.9 |
| 20260505173021 | 25 | 139 | 11.3 | 32.2 | 0.00 | 0.03 | 0.03 | 40 | 1008.1 |
| 20260505171522 | 25 | 224 | 12.9 | 30.6 | 0.00 | 0.03 | 0.03 | 40 | 1007.8 |
| 20260505170017 | 25 | 93 | 11.3 | 25.7 | 0.00 | 0.03 | 0.03 | 41 | 1008.1 |
| 20260505164510 | 25 | 201 | 8.0 | 24.1 | 0.00 | 0.03 | 0.03 | 42 | 1008.4 |
| 20260505163010 | 24 | 310 | 11.3 | 17.7 | 0.00 | 0.03 | 0.03 | 41 | 1008.7 |
| 20260505161505 | 25 | 210 | 6.4 | 19.3 | 0.00 | 0.03 | 0.03 | 39 | 1009.1 |
| 20260505153054 | 23 | 215 | 8.0 | 17.7 | 0.00 | 0.03 | 0.03 | 47 | 1009.5 |
| 20260505151549 | 23 | 257 | 6.4 | 19.3 | 0.00 | 0.03 | 0.03 | 48 | 1009.3 |
| 20260505130114 | 19 | 257 | 6.4 | 14.5 | 0.00 | 0.03 | 0.03 | 58 | 1009.8 |
| 20260505124514 | 19 | 125 | 8.0 | 22.5 | 0.00 | 0.03 | 0.03 | 57 | 1009.2 |
| 20260505123005 | 18 | 149 | 9.7 | 20.9 | 0.00 | 0.03 | 0.03 | 59 | 1009.3 |
| 20260505121559 | 17 | 124 | 9.7 | 17.7 | 0.00 | 0.03 | 0.03 | 63 | 1009.4 |
| 20260505120109 | 16 | 119 | 8.0 | 20.9 | 0.00 | 0.03 | 0.03 | 64 | 1009.3 |
| 20260505114549 | 16 | 146 | 8.0 | 33.8 | 0.03 | 0.03 | 0.03 | 66 | 1009.5 |
| 20260505113052 | 15 | 197 | 9.7 | 27.4 | 0.03 | 0.03 | 0.03 | 67 | 1009.4 |
| 20260505111542 | 15 | 101 | 8.0 | 20.9 | 0.03 | 0.03 | 0.03 | 71 | 1009.2 |